�v������,���r���O(���x),�����t���O,���r���O(���x),�����t���O,��1(���x),�����t���O,�������x,�����t���O,�C�ۑ�(���x),�����t���O,�C�ۑ�(���x),�����t���O
11/1/2004 0:00,24.6,0,67.1,0,24.9,0,-47,0,18.4,0,85.8,0
11/1/2004 0:15,24.7,0,66.8,0,25,0,-46.9,0,18.3,0,86.6,0
11/1/2004 0:30,24.8,0,66.8,0,25.1,0,-46.9,0,18.2,0,87.3,0
11/1/2004 0:45,24.9,0,65.6,0,25.1,0,-46.8,0,18.1,0,88.1,0
11/1/2004 1:00,24.9,0,64.7,0,25.2,0,-46.8,0,18,0,88.8,0
11/1/2004 1:15,25,0,64.3,0,25.2,0,-46.7,0,18,0,88.8,0
11/1/2004 1:30,25.1,0,63.9,0,25.3,0,-46.7,0,18,0,88.8,0
11/1/2004 1:45,25.1,0,63.4,0,25.3,0,-46.6,0,18,0,88.8,0
11/1/2004 2:00,25.2,0,66,0,25.3,0,-46.6,0,18,0,88.8,0
11/1/2004 2:15,25.2,0,64.2,0,25.4,0,-46.6,0,17.9,0,89.3,0
11/1/2004 2:30,25.2,0,64.7,0,25.4,0,-46.6,0,17.9,0,89.8,0
11/1/2004 2:45,25.3,0,64.3,0,25.5,0,-46.5,0,17.8,0,90.3,0
11/1/2004 3:00,25.3,0,63.6,0,25.4,0,-46.5,0,17.8,0,90.8,0
11/1/2004 3:15,25.3,0,63.4,0,25.3,0,-46.4,0,17.8,0,91.1,0
11/1/2004 3:30,25.3,0,62.9,0,25.3,0,-46.4,0,17.8,0,91.3,0
11/1/2004 3:45,25.3,0,62.9,0,25.2,0,-46.4,0,17.9,0,91.6,0
11/1/2004 4:00,25.3,0,62.6,0,25.1,0,-46.4,0,17.9,0,91.8,0
11/1/2004 4:15,25.3,0,62.6,0,25.1,0,-46.3,0,17.8,0,91.8,0
11/1/2004 4:30,25.3,0,62.6,0,25.1,0,-46.3,0,17.7,0,91.8,0
11/1/2004 4:45,25.3,0,62.5,0,25,0,-46.3,0,17.7,0,91.8,0
11/1/2004 5:00,25.3,0,62.4,0,25,0,-46.3,0,17.6,0,91.8,0
11/1/2004 5:15,25.3,0,62.5,0,25,0,-46.2,0,17.6,0,92.1,0
11/1/2004 5:30,25.2,0,62.7,0,24.9,0,-46.2,0,17.6,0,92.3,0
11/1/2004 5:45,25.2,0,62.4,0,24.9,0,-46.2,0,17.6,0,92.6,0
11/1/2004 6:00,25.2,0,62.4,0,24.9,0,-46.2,0,17.6,0,92.8,0
11/1/2004 6:15,25.2,0,63,0,24.9,0,-46.2,0,17.6,0,92.6,0
11/1/2004 6:30,25.2,0,63.7,0,24.9,0,-46.2,0,17.6,0,92.3,0
11/1/2004 6:45,25.2,0,64.1,0,24.9,0,-46.2,0,17.6,0,92.1,0
11/1/2004 7:00,25.2,0,63.4,0,24.9,0,-46.3,0,17.6,0,91.8,0
11/1/2004 7:15,25.2,0,63.4,0,24.8,0,-46.3,0,17.7,0,91.3,0
11/1/2004 7:30,25.2,0,63.7,0,24.8,0,-46.4,0,17.8,0,90.8,0
11/1/2004 7:45,25.3,0,64,0,24.7,0,-46.4,0,18,0,90.3,0
11/1/2004 8:00,25.1,0,63.3,0,24.7,0,-46.4,0,18.1,0,89.8,0
11/1/2004 8:15,25,0,63.5,0,24.6,0,-46.5,0,18.2,0,89.6,0
11/1/2004 8:30,24.9,0,63.8,0,24.6,0,-46.5,0,18.3,0,89.3,0
11/1/2004 8:45,24.7,0,63.9,0,24.5,0,-46.5,0,18.4,0,89.1,0
11/1/2004 9:00,24.6,0,64,0,24.4,0,-47.5,0,18.5,0,88.8,0
11/1/2004 9:15,24.5,0,64.3,0,24.4,0,-48,0,18.5,0,88.8,0
11/1/2004 9:30,24.4,0,64.8,0,24.3,0,-48.4,0,18.6,0,88.8,0
11/1/2004 9:45,24.3,0,65.2,0,24.3,0,-48.8,0,18.6,0,88.8,0
11/1/2004 10:00,24.2,0,65.4,0,24.2,0,-49.1,0,18.7,0,88.8,0
11/1/2004 10:15,24.1,0,65.6,0,24.2,0,-49.4,0,18.8,0,88.1,0
11/1/2004 10:30,24,0,65.7,0,24.2,0,-49.6,0,18.9,0,87.3,0
11/1/2004 10:45,24,0,65.8,0,24.2,0,-49.8,0,19,0,86.6,0
11/1/2004 11:00,24,0,66.3,0,24.2,0,-50,0,19.1,0,85.8,0
11/1/2004 11:15,23.9,0,66.9,0,24.2,0,OVER,0,19.3,0,85.1,0
11/1/2004 11:30,23.9,0,66.8,0,24.3,0,OVER,0,19.5,0,84.3,0
11/1/2004 11:45,24,0,66.6,0,24.3,0,OVER,0,19.8,0,83.6,0
11/1/2004 12:00,24,0,66.4,0,24.4,0,OVER,0,20,0,82.8,0
11/1/2004 12:15,24,0,66.3,0,24.5,0,OVER,0,20.2,0,81.3,0
11/1/2004 12:30,24.1,0,66.1,0,24.5,0,OVER,0,20.4,0,79.8,0
11/1/2004 12:45,24.2,0,65.9,0,24.7,0,OVER,0,20.7,0,78.3,0
11/1/2004 13:00,24.2,0,65.9,0,24.8,0,OVER,0,20.9,0,76.8,0
11/1/2004 13:15,24.3,0,66,0,24.9,0,OVER,0,21,0,76.3,0
11/1/2004 13:30,24.3,0,66.8,0,24.9,0,OVER,0,21,0,75.8,0
11/1/2004 13:45,24.3,0,67.1,0,24.9,0,OVER,0,21.1,0,75.3,0
11/1/2004 14:00,24.3,0,67,0,24.9,0,OVER,0,21.2,0,74.8,0
11/1/2004 14:15,24.3,0,66.6,0,24.9,0,OVER,0,21.3,0,74.8,0
11/1/2004 14:30,24.3,0,65.7,0,24.9,0,OVER,0,21.3,0,74.8,0
11/1/2004 14:45,24.2,0,65.8,0,24.9,0,OVER,0,21.4,0,74.8,0
11/1/2004 15:00,24.2,0,66,0,24.9,0,OVER,0,21.5,0,74.8,0
11/1/2004 15:15,24.2,0,66.3,0,24.9,0,OVER,0,21.6,0,75.3,0
11/1/2004 15:30,24.3,0,66.3,0,24.9,0,OVER,0,21.6,0,75.8,0
11/1/2004 15:45,24.4,0,66.2,0,25,0,OVER,0,21.7,0,76.3,0
11/1/2004 16:00,24.4,0,65.9,0,25.2,0,OVER,0,21.8,0,76.8,0
11/1/2004 16:15,24.5,0,65.8,0,25.2,0,OVER,0,21.8,0,77.1,0
11/1/2004 16:30,24.4,0,65.7,0,25.2,0,OVER,0,21.8,0,77.3,0
11/1/2004 16:45,24.4,0,65.8,0,25.1,0,OVER,0,21.9,0,77.6,0
11/1/2004 17:00,24.4,0,66.1,0,25,0,OVER,0,21.9,0,77.8,0
11/1/2004 17:15,24.4,0,66.2,0,25,0,OVER,0,21.8,0,78.3,0
11/1/2004 17:30,24.4,0,66.1,0,24.9,0,OVER,0,21.7,0,78.8,0
11/1/2004 17:45,24.4,0,65.8,0,24.9,0,OVER,0,21.7,0,79.3,0
11/1/2004 18:00,24.4,0,65.6,0,24.8,0,OVER,0,21.6,0,79.8,0
11/1/2004 18:15,24.4,0,65.5,0,24.8,0,OVER,0,21.5,0,80.8,0
11/1/2004 18:30,24.4,0,65.5,0,24.8,0,OVER,0,21.3,0,81.8,0
11/1/2004 18:45,24.4,0,65.9,0,24.7,0,OVER,0,21.2,0,82.8,0
11/1/2004 19:00,24.4,0,66.2,0,24.7,0,OVER,0,21.1,0,83.8,0
11/1/2004 19:15,24.4,0,66.9,0,24.7,0,OVER,0,20.9,0,83.8,0
11/1/2004 19:30,24.4,0,67.7,0,24.7,0,OVER,0,20.7,0,83.8,0
11/1/2004 19:45,24.4,0,68.2,0,24.7,0,OVER,0,20.5,0,83.8,0
11/1/2004 20:00,24.5,0,70,0,24.7,0,OVER,0,20.3,0,83.8,0
11/1/2004 20:15,24.6,0,72,0,24.7,0,OVER,0,20.2,0,84.6,0
11/1/2004 20:30,24.7,0,74.1,0,24.8,0,OVER,0,20,0,85.3,0
11/1/2004 20:45,24.8,0,73.8,0,24.8,0,OVER,0,19.9,0,86.1,0
11/1/2004 21:00,24.9,0,74.8,0,24.9,0,OVER,0,19.8,0,86.8,0
11/1/2004 21:15,24.9,0,73.3,0,24.9,0,OVER,0,19.6,0,87.1,0
11/1/2004 21:30,24.9,0,70.9,0,24.9,0,OVER,0,19.3,0,87.3,0
11/1/2004 21:45,24.9,0,69.7,0,25,0,OVER,0,19.1,0,87.6,0
11/1/2004 22:00,24.9,0,69.3,0,24.9,0,OVER,0,18.9,0,87.8,0
11/1/2004 22:15,24.9,0,68.9,0,25,0,OVER,0,18.8,0,88.3,0
11/1/2004 22:30,24.8,0,69,0,24.8,0,OVER,0,18.7,0,88.8,0
11/1/2004 22:45,24.8,0,68.7,0,24.6,0,OVER,0,18.6,0,89.3,0
11/1/2004 23:00,24.7,0,68.5,0,24.5,0,OVER,0,18.5,0,89.8,0
11/1/2004 23:15,24.7,0,68.7,0,24.3,0,OVER,0,18.6,0,89.6,0
11/1/2004 23:30,24.6,0,68.5,0,24.2,0,OVER,0,18.6,0,89.3,0
11/1/2004 23:45,24.6,0,68,0,24.1,0,OVER,0,18.7,0,89.1,0
11/2/2004 0:00,24.6,0,67.5,0,24,0,OVER,0,18.8,0,88.8,0
11/2/2004 0:15,24.5,0,67.3,0,23.9,0,OVER,0,18.6,0,88.8,0
11/2/2004 0:30,24.5,0,68.8,0,23.8,0,OVER,0,18.5,0,88.8,0
11/2/2004 0:45,24.5,0,69.4,0,23.6,0,OVER,0,18.3,0,88.8,0
11/2/2004 1:00,24.5,0,69.3,0,23.8,0,OVER,0,18.2,0,88.8,0
11/2/2004 1:15,24.5,0,69,0,23.8,0,OVER,0,18,0,89.1,0
11/2/2004 1:30,24.5,0,69,0,23.9,0,OVER,0,17.9,0,89.3,0
11/2/2004 1:45,24.4,0,69,0,23.9,0,OVER,0,17.7,0,89.6,0
11/2/2004 2:00,24.4,0,68.9,0,23.9,0,OVER,0,17.6,0,89.8,0
11/2/2004 2:15,24.4,0,68.8,0,23.9,0,OVER,0,17.4,0,90.1,0
11/2/2004 2:30,24.3,0,68.8,0,23.9,0,OVER,0,17.2,0,90.3,0
11/2/2004 2:45,24.3,0,69,0,23.9,0,OVER,0,17,0,90.6,0
11/2/2004 3:00,24.2,0,68.8,0,23.9,0,OVER,0,16.8,0,90.8,0
11/2/2004 3:15,24.2,0,69,0,23.9,0,OVER,0,17,0,90.3,0
11/2/2004 3:30,24.1,0,68.8,0,23.9,0,OVER,0,17.3,0,89.8,0
11/2/2004 3:45,24.1,0,69,0,23.8,0,OVER,0,17.5,0,89.3,0
11/2/2004 4:00,24,0,69.1,0,23.8,0,OVER,0,17.8,0,88.8,0
11/2/2004 4:15,24,0,69.1,0,23.8,0,OVER,0,17.5,0,89.1,0
11/2/2004 4:30,24,0,69.2,0,23.8,0,OVER,0,17.2,0,89.3,0
11/2/2004 4:45,23.9,0,69.1,0,23.8,0,OVER,0,17,0,89.6,0
11/2/2004 5:00,23.9,0,69.1,0,23.7,0,OVER,0,16.7,0,89.8,0
11/2/2004 5:15,23.8,0,68.9,0,23.7,0,OVER,0,16.6,0,90.3,0
11/2/2004 5:30,23.8,0,68.8,0,23.7,0,OVER,0,16.4,0,90.8,0
11/2/2004 5:45,23.7,0,68.7,0,23.6,0,OVER,0,16.3,0,91.3,0
11/2/2004 6:00,23.7,0,68.6,0,23.6,0,OVER,0,16.2,0,91.8,0
11/2/2004 6:15,23.7,0,68.6,0,23.6,0,OVER,0,16.2,0,91.6,0
11/2/2004 6:30,23.6,0,68.4,0,23.5,0,OVER,0,16.2,0,91.3,0
11/2/2004 6:45,23.6,0,68.8,0,23.5,0,OVER,0,16.2,0,91.1,0
11/2/2004 7:00,23.5,0,68.6,0,23.4,0,OVER,0,16.2,0,90.8,0
11/2/2004 7:15,23.5,0,68.6,0,23.4,0,OVER,0,16.3,0,89.8,0
11/2/2004 7:30,23.5,0,69.1,0,23.4,0,OVER,0,16.5,0,88.8,0
11/2/2004 7:45,23.5,0,70.2,0,23.4,0,OVER,0,16.6,0,87.8,0
11/2/2004 8:00,23.5,0,71.7,0,23.4,0,OVER,0,16.8,0,86.8,0
11/2/2004 8:15,23.5,0,71.6,0,23.4,0,OVER,0,17.1,0,84.8,0
11/2/2004 8:30,23.4,0,71.8,0,23.4,0,OVER,0,17.4,0,82.8,0
11/2/2004 8:45,23.3,0,73.1,0,23.4,0,OVER,0,17.7,0,80.8,0
11/2/2004 9:00,23.3,0,73.2,0,23.4,0,OVER,0,18,0,78.8,0
11/2/2004 9:15,23.2,0,72.7,0,23.5,0,OVER,0,18.3,0,76.8,0
11/2/2004 9:30,23.1,0,72.3,0,23.5,0,OVER,0,18.7,0,74.8,0
11/2/2004 9:45,23.1,0,71.9,0,23.6,0,OVER,0,19,0,72.8,0
11/2/2004 10:00,23,0,71.8,0,23.6,0,OVER,0,19.4,0,70.8,0
11/2/2004 10:15,22.9,0,71.7,0,23.6,0,OVER,0,19.4,0,70.8,0
11/2/2004 10:30,22.9,0,71.6,0,23.6,0,OVER,0,19.5,0,70.8,0
11/2/2004 10:45,22.8,0,71.5,0,23.6,0,OVER,0,19.5,0,70.8,0
11/2/2004 11:00,22.8,0,71.5,0,23.6,0,OVER,0,19.6,0,70.8,0
11/2/2004 11:15,22.8,0,71.5,0,23.6,0,OVER,0,19.7,0,70.8,0
11/2/2004 11:30,22.7,0,71.6,0,23.7,0,OVER,0,19.8,0,70.8,0
11/2/2004 11:45,22.7,0,71.6,0,23.8,0,OVER,0,19.9,0,70.8,0
11/2/2004 12:00,22.8,0,71.3,0,23.9,0,OVER,0,20,0,70.8,0
11/2/2004 12:15,22.8,0,71,0,24.1,0,OVER,0,20.3,0,70.3,0
11/2/2004 12:30,22.8,0,70.5,0,24.3,0,OVER,0,20.5,0,69.8,0
11/2/2004 12:45,22.9,0,70.3,0,24.5,0,OVER,0,20.8,0,69.3,0
11/2/2004 13:00,23,0,70,0,24.8,0,OVER,0,21.1,0,68.8,0
11/2/2004 13:15,23.1,0,69.9,0,24.9,0,OVER,0,21.1,0,67.1,0
11/2/2004 13:30,23.2,0,69.6,0,25.1,0,OVER,0,21.1,0,65.3,0
11/2/2004 13:45,23.3,0,69.9,0,25.1,0,OVER,0,21.1,0,63.6,0
11/2/2004 14:00,23.4,0,69.3,0,25.3,0,OVER,0,21.1,0,61.8,0
11/2/2004 14:15,23.6,0,69.1,0,25.6,0,OVER,0,21.3,0,61.5,0
11/2/2004 14:30,23.7,0,68.3,0,25.8,0,OVER,0,21.5,0,61.3,0
11/2/2004 14:45,23.8,0,68.2,0,26,0,OVER,0,21.8,0,61,0
11/2/2004 15:00,23.9,0,67.7,0,26.2,0,OVER,0,22,0,60.8,0
11/2/2004 15:15,23.9,0,67.9,0,26.2,0,OVER,0,22,0,60.8,0
11/2/2004 15:30,24,0,68.1,0,26.2,0,OVER,0,21.9,0,60.8,0
11/2/2004 15:45,24,0,67.7,0,26.2,0,OVER,0,21.9,0,60.8,0
11/2/2004 16:00,24,0,67.6,0,26.2,0,OVER,0,21.9,0,60.8,0
11/2/2004 16:15,24,0,67.4,0,26.1,0,OVER,0,21.8,0,61.5,0
11/2/2004 16:30,24,0,67.4,0,26,0,OVER,0,21.7,0,62.3,0
11/2/2004 16:45,23.9,0,67.4,0,25.9,0,OVER,0,21.7,0,63,0
11/2/2004 17:00,23.9,0,67.5,0,25.9,0,OVER,0,21.6,0,63.8,0
11/2/2004 17:15,23.8,0,67.6,0,25.8,0,OVER,0,21.5,0,64.8,0
11/2/2004 17:30,23.8,0,67.7,0,25.7,0,OVER,0,21.4,0,65.8,0
11/2/2004 17:45,23.7,0,68,0,25.6,0,OVER,0,21.4,0,66.8,0
11/2/2004 18:00,23.6,0,68.2,0,25.4,0,OVER,0,21.3,0,67.8,0
11/2/2004 18:15,23.6,0,68.3,0,25.3,0,OVER,0,20.9,0,69.8,0
11/2/2004 18:30,23.5,0,68.1,0,25.2,0,OVER,0,20.5,0,71.8,0
11/2/2004 18:45,23.5,0,67.9,0,25.1,0,OVER,0,20.1,0,73.8,0
11/2/2004 19:00,23.5,0,67.6,0,25,0,OVER,0,19.7,0,75.8,0
11/2/2004 19:15,23.5,0,67.6,0,24.9,0,OVER,0,19.6,0,76.1,0
11/2/2004 19:30,23.4,0,67.2,0,24.8,0,OVER,0,19.4,0,76.3,0
11/2/2004 19:45,23.4,0,67.3,0,24.7,0,OVER,0,19.3,0,76.6,0
11/2/2004 20:00,23.3,0,68,0,24.6,0,OVER,0,19.2,0,76.8,0
11/2/2004 20:15,23.3,0,68.1,0,24.5,0,OVER,0,19,0,77.8,0
11/2/2004 20:30,23.4,0,68.3,0,24.5,0,OVER,0,18.8,0,78.8,0
11/2/2004 20:45,23.4,0,68.4,0,24.4,0,OVER,0,18.6,0,79.8,0
11/2/2004 21:00,23.4,0,67.8,0,24.3,0,OVER,0,18.4,0,80.8,0
11/2/2004 21:15,23.4,0,67.4,0,24.2,0,OVER,0,18.4,0,80.3,0
11/2/2004 21:30,23.4,0,67.9,0,24.1,0,OVER,0,18.5,0,79.8,0
11/2/2004 21:45,23.4,0,68.5,0,24,0,OVER,0,18.5,0,79.3,0
11/2/2004 22:00,23.5,0,68.3,0,23.9,0,OVER,0,18.6,0,78.8,0
11/2/2004 22:15,23.5,0,68.8,0,23.9,0,OVER,0,18.5,0,78.8,0
11/2/2004 22:30,23.5,0,67.9,0,23.8,0,OVER,0,18.4,0,78.8,0
11/2/2004 22:45,23.5,0,67.9,0,23.8,0,OVER,0,18.4,0,78.8,0
11/2/2004 23:00,23.5,0,67.6,0,23.8,0,OVER,0,18.3,0,78.8,0
11/2/2004 23:15,23.5,0,67.3,0,23.7,0,OVER,0,18.3,0,79.1,0
11/2/2004 23:30,23.5,0,67.3,0,23.7,0,OVER,0,18.2,0,79.3,0
11/2/2004 23:45,23.5,0,67.2,0,23.7,0,OVER,0,18.2,0,79.6,0
11/3/2004 0:00,23.5,0,67.1,0,23.7,0,OVER,0,18.2,0,79.8,0
11/3/2004 0:15,23.5,0,67,0,23.6,0,OVER,0,18.1,0,79.6,0
11/3/2004 0:30,23.5,0,67,0,23.7,0,OVER,0,18.1,0,79.3,0
11/3/2004 0:45,23.5,0,66.9,0,23.7,0,OVER,0,18,0,79.1,0
11/3/2004 1:00,23.5,0,66.7,0,23.7,0,OVER,0,18,0,78.8,0
11/3/2004 1:15,23.5,0,68.1,0,23.6,0,OVER,0,18,0,78.6,0
11/3/2004 1:30,23.5,0,68.5,0,23.6,0,OVER,0,18.1,0,78.3,0
11/3/2004 1:45,23.5,0,67.9,0,23.5,0,OVER,0,18.1,0,78.1,0
11/3/2004 2:00,23.5,0,67.7,0,23.5,0,OVER,0,18.2,0,77.8,0
11/3/2004 2:15,23.5,0,67.8,0,23.4,0,OVER,0,18.1,0,78.6,0
11/3/2004 2:30,23.5,0,68.7,0,23.4,0,OVER,0,18,0,79.3,0
11/3/2004 2:45,23.5,0,68.6,0,23.4,0,OVER,0,17.9,0,80.1,0
11/3/2004 3:00,23.5,0,68.3,0,23.4,0,OVER,0,17.8,0,80.8,0
11/3/2004 3:15,23.5,0,68,0,23.3,0,OVER,0,17.7,0,81.3,0
11/3/2004 3:30,23.5,0,67.6,0,23.3,0,OVER,0,17.5,0,81.8,0
11/3/2004 3:45,23.4,0,66.9,0,23.3,0,OVER,0,17.4,0,82.3,0
11/3/2004 4:00,23.4,0,66.6,0,23.3,0,OVER,0,17.3,0,82.8,0
11/3/2004 4:15,23.3,0,67.4,0,23.3,0,OVER,0,17.3,0,83.1,0
11/3/2004 4:30,23.2,0,67.5,0,23.3,0,OVER,0,17.2,0,83.3,0
11/3/2004 4:45,23.2,0,67.8,0,23.3,0,OVER,0,17.2,0,83.6,0
11/3/2004 5:00,23.1,0,68,0,23.3,0,OVER,0,17.2,0,83.8,0
11/3/2004 5:15,23,0,68.4,0,23.2,0,OVER,0,17.2,0,83.8,0
11/3/2004 5:30,22.9,0,68.7,0,23.2,0,OVER,0,17.2,0,83.8,0
11/3/2004 5:45,22.8,0,68.8,0,23.2,0,OVER,0,17.2,0,83.8,0
11/3/2004 6:00,22.8,0,68.9,0,23.2,0,OVER,0,17.2,0,83.8,0
11/3/2004 6:15,22.7,0,69.3,0,23.2,0,OVER,0,17.2,0,83.6,0
11/3/2004 6:30,22.6,0,69.5,0,23.2,0,OVER,0,17.2,0,83.3,0
11/3/2004 6:45,22.6,0,69.6,0,23.2,0,OVER,0,17.2,0,83.1,0
11/3/2004 7:00,22.5,0,69.6,0,23.2,0,OVER,0,17.2,0,82.8,0
11/3/2004 7:15,22.5,0,69.7,0,23.1,0,OVER,0,17.3,0,82.8,0
11/3/2004 7:30,22.5,0,69.7,0,23.1,0,OVER,0,17.4,0,82.8,0
11/3/2004 7:45,22.5,0,69.9,0,23.1,0,OVER,0,17.6,0,82.8,0
11/3/2004 8:00,22.5,0,69.8,0,23.1,0,OVER,0,17.7,0,82.8,0
11/3/2004 8:15,22.5,0,69.7,0,23,0,OVER,0,17.8,0,81.8,0
11/3/2004 8:30,22.6,0,70.1,0,23,0,OVER,0,18,0,80.8,0
11/3/2004 8:45,22.6,0,69.8,0,23.1,0,OVER,0,18.1,0,79.8,0
11/3/2004 9:00,22.6,0,70.1,0,23.2,0,OVER,0,18.3,0,78.8,0
11/3/2004 9:15,22.7,0,70.2,0,23.3,0,OVER,0,18.5,0,77.8,0
11/3/2004 9:30,22.7,0,70,0,23.3,0,OVER,0,18.7,0,76.8,0
11/3/2004 9:45,22.7,0,70.2,0,23.4,0,OVER,0,19,0,75.8,0
11/3/2004 10:00,22.8,0,70.2,0,23.6,0,OVER,0,19.2,0,74.8,0
11/3/2004 10:15,22.9,0,70.5,0,23.8,0,OVER,0,19.5,0,72.8,0
11/3/2004 10:30,23.1,0,71.4,0,24.1,0,OVER,0,19.8,0,70.8,0
11/3/2004 10:45,23.3,0,71.2,0,24.3,0,OVER,0,20.1,0,68.8,0
11/3/2004 11:00,23.7,0,71.2,0,24.5,0,OVER,0,20.4,0,66.8,0
11/3/2004 11:15,23.9,0,70.2,0,24.8,0,OVER,0,20.6,0,65.3,0
11/3/2004 11:30,24.1,0,69.1,0,25,0,OVER,0,20.8,0,63.8,0
11/3/2004 11:45,24.2,0,68.5,0,25.2,0,OVER,0,21.1,0,62.3,0
11/3/2004 12:00,24.3,0,69.3,0,25.3,0,OVER,0,21.3,0,60.8,0
11/3/2004 12:15,24.3,0,68.7,0,25.4,0,OVER,0,21.4,0,60.3,0
11/3/2004 12:30,24.4,0,67.7,0,25.5,0,OVER,0,21.5,0,59.8,0
11/3/2004 12:45,24.5,0,66.9,0,25.6,0,OVER,0,21.6,0,59.3,0
11/3/2004 13:00,24.5,0,66.4,0,25.8,0,OVER,0,21.7,0,58.8,0
11/3/2004 13:15,24.5,0,65.9,0,25.9,0,OVER,0,22,0,57.5,0
11/3/2004 13:30,24.6,0,65.3,0,26.1,0,OVER,0,22.3,0,56.3,0
11/3/2004 13:45,24.7,0,65.2,0,26.2,0,OVER,0,22.7,0,55,0
11/3/2004 14:00,24.8,0,64.6,0,26.4,0,OVER,0,23,0,53.8,0
11/3/2004 14:15,24.9,0,64.3,0,26.6,0,OVER,0,22.9,0,52,0
11/3/2004 14:30,25,0,64.1,0,26.8,0,OVER,0,22.9,0,50.3,0
11/3/2004 14:45,25.1,0,63.8,0,26.8,0,OVER,0,22.8,0,48.5,0
11/3/2004 15:00,25.2,0,63.1,0,26.9,0,OVER,0,22.8,0,46.8,0
11/3/2004 15:15,25.3,0,62.7,0,27.1,0,OVER,0,22.6,0,47.3,0
11/3/2004 15:30,25.4,0,62.3,0,27.2,0,OVER,0,22.5,0,47.8,0
11/3/2004 15:45,25.5,0,61.6,0,27.3,0,OVER,0,22.3,0,48.3,0
11/3/2004 16:00,25.5,0,60.2,0,27.3,0,OVER,0,22.2,0,48.8,0
11/3/2004 16:15,25.4,0,60.2,0,27.2,0,OVER,0,22,0,47.3,0
11/3/2004 16:30,25.3,0,60.4,0,27.1,0,OVER,0,21.7,0,45.8,0
11/3/2004 16:45,25.1,0,60.3,0,27,0,OVER,0,21.5,0,44.3,0
11/3/2004 17:00,25,0,58.7,0,26.8,0,OVER,0,21.3,0,42.8,0
11/3/2004 17:15,24.8,0,58,0,26.7,0,OVER,0,21.2,0,43,0
11/3/2004 17:30,24.7,0,56.9,0,26.6,0,OVER,0,21,0,43.3,0
11/3/2004 17:45,24.5,0,56.7,0,26.4,0,OVER,0,20.9,0,43.5,0
11/3/2004 18:00,24.4,0,56.2,0,26.3,0,OVER,0,20.8,0,43.8,0
11/3/2004 18:15,24.3,0,56.1,0,26.1,0,OVER,0,20.6,0,43.3,0
11/3/2004 18:30,24.1,0,56.2,0,26,0,OVER,0,20.5,0,42.8,0
11/3/2004 18:45,24,0,55.3,0,25.8,0,OVER,0,20.3,0,42.3,0
11/3/2004 19:00,24,0,55.5,0,25.7,0,OVER,0,20.2,0,41.8,0
11/3/2004 19:15,24,0,57.8,0,25.6,0,OVER,0,20,0,42.8,0
11/3/2004 19:30,24,0,58.1,0,25.2,0,OVER,0,19.9,0,43.8,0
11/3/2004 19:45,24,0,62.3,0,25,0,OVER,0,19.7,0,44.8,0
11/3/2004 20:00,24,0,65.7,0,25,0,OVER,0,19.6,0,45.8,0
11/3/2004 20:15,24.1,0,64.7,0,25,0,OVER,0,19.4,0,46.5,0
11/3/2004 20:30,24.1,0,63.2,0,25,0,OVER,0,19.2,0,47.3,0
11/3/2004 20:45,24.1,0,62,0,24.9,0,OVER,0,19,0,48,0
11/3/2004 21:00,24,0,61.3,0,24.9,0,OVER,0,18.8,0,48.8,0
11/3/2004 21:15,24,0,60.9,0,24.9,0,OVER,0,18.7,0,48.3,0
11/3/2004 21:30,24,0,60.7,0,24.8,0,OVER,0,18.6,0,47.8,0
11/3/2004 21:45,24,0,61.2,0,24.7,0,OVER,0,18.6,0,47.3,0
11/3/2004 22:00,24,0,60.2,0,24.7,0,OVER,0,18.5,0,46.8,0
11/3/2004 22:15,24,0,60.9,0,24.6,0,OVER,0,18.4,0,46.5,0
11/3/2004 22:30,23.9,0,60,0,24.6,0,OVER,0,18.3,0,46.3,0
11/3/2004 22:45,23.8,0,59.5,0,24.6,0,OVER,0,18.3,0,46,0
11/3/2004 23:00,23.8,0,58.2,0,24.5,0,OVER,0,18.2,0,45.8,0
11/3/2004 23:15,23.7,0,58.2,0,24.5,0,OVER,0,17.8,0,48.5,0
11/3/2004 23:30,23.6,0,58.2,0,24.4,0,OVER,0,17.4,0,51.3,0
11/3/2004 23:45,23.5,0,58.5,0,24.4,0,OVER,0,17.1,0,54,0
11/4/2004 0:00,23.4,0,58.4,0,24.4,0,OVER,0,16.7,0,56.8,0
11/4/2004 0:15,23.3,0,58.7,0,24.3,0,OVER,0,16.8,0,57,0
11/4/2004 0:30,23.2,0,58.9,0,24.3,0,OVER,0,16.9,0,57.3,0
11/4/2004 0:45,23.1,0,59.2,0,24.3,0,OVER,0,17,0,57.5,0
11/4/2004 1:00,23,0,59.7,0,24.2,0,OVER,0,17.1,0,57.8,0
11/4/2004 1:15,23,0,60.3,0,24.2,0,OVER,0,17,0,59.3,0
11/4/2004 1:30,22.9,0,60.9,0,24.1,0,OVER,0,16.9,0,60.8,0
11/4/2004 1:45,23,0,61.9,0,24.1,0,OVER,0,16.8,0,62.3,0
11/4/2004 2:00,23.1,0,61.8,0,24.1,0,OVER,0,16.7,0,63.8,0
11/4/2004 2:15,23.3,0,61.3,0,24,0,OVER,0,16.5,0,66.6,0
11/4/2004 2:30,23.4,0,60.7,0,24,0,OVER,0,16.3,0,69.3,0
11/4/2004 2:45,23.5,0,60.6,0,23.9,0,OVER,0,16.1,0,72.1,0
11/4/2004 3:00,23.6,0,59.7,0,23.9,0,OVER,0,15.9,0,74.8,0
11/4/2004 3:15,23.7,0,59.5,0,23.9,0,OVER,0,15.8,0,75.1,0
11/4/2004 3:30,23.7,0,59.3,0,23.8,0,OVER,0,15.7,0,75.3,0
11/4/2004 3:45,23.8,0,60.5,0,23.8,0,OVER,0,15.6,0,75.6,0
11/4/2004 4:00,23.8,0,59.3,0,23.7,0,OVER,0,15.5,0,75.8,0
11/4/2004 4:15,23.9,0,59.2,0,23.7,0,OVER,0,15.4,0,75.6,0
11/4/2004 4:30,23.9,0,58.4,0,23.6,0,OVER,0,15.2,0,75.3,0
11/4/2004 4:45,23.9,0,58.1,0,23.6,0,OVER,0,15.1,0,75.1,0
11/4/2004 5:00,23.9,0,58.4,0,23.6,0,OVER,0,15,0,74.8,0
11/4/2004 5:15,23.9,0,59.7,0,23.5,0,OVER,0,14.7,0,75.8,0
11/4/2004 5:30,23.9,0,58.5,0,23.5,0,OVER,0,14.5,0,76.8,0
11/4/2004 5:45,23.9,0,57.7,0,23.4,0,OVER,0,14.2,0,77.8,0
11/4/2004 6:00,23.8,0,57,0,23.3,0,OVER,0,14,0,78.8,0
11/4/2004 6:15,23.8,0,56.3,0,23.3,0,OVER,0,14.4,0,73.8,0
11/4/2004 6:30,23.8,0,56.3,0,23.2,0,OVER,0,14.9,0,68.8,0
11/4/2004 6:45,23.8,0,55.9,0,23.1,0,OVER,0,15.3,0,63.8,0
11/4/2004 7:00,23.7,0,56.7,0,23.1,0,OVER,0,15.8,0,58.8,0
11/4/2004 7:15,23.7,0,57.6,0,23,0,OVER,0,16,0,57.3,0
11/4/2004 7:30,23.7,0,58.4,0,22.9,0,OVER,0,16.3,0,55.8,0
11/4/2004 7:45,23.7,0,60.1,0,22.8,0,OVER,0,16.5,0,54.3,0
11/4/2004 8:00,23.7,0,58.3,0,22.9,0,OVER,0,16.8,0,52.8,0
11/4/2004 8:15,23.6,0,58.3,0,23,0,OVER,0,17.1,0,50.5,0
11/4/2004 8:30,23.5,0,59.6,0,23.1,0,OVER,0,17.4,0,48.3,0
11/4/2004 8:45,23.4,0,58.6,0,23.2,0,OVER,0,17.8,0,46,0
11/4/2004 9:00,23.3,0,58.7,0,23.3,0,OVER,0,18.1,0,43.8,0
11/4/2004 9:15,23.2,0,58.8,0,23.4,0,OVER,0,18.5,0,43,0
11/4/2004 9:30,23.1,0,58.7,0,23.4,0,OVER,0,18.8,0,42.3,0
11/4/2004 9:45,23,0,58.8,0,23.6,0,OVER,0,19.2,0,41.5,0
11/4/2004 10:00,22.9,0,58.8,0,23.7,0,OVER,0,19.6,0,40.8,0
11/4/2004 10:15,22.9,0,58.8,0,23.8,0,OVER,0,19.8,0,38.8,0
11/4/2004 10:30,22.9,0,59.1,0,23.9,0,OVER,0,20,0,36.8,0
11/4/2004 10:45,22.9,0,59.1,0,24.1,0,OVER,0,20.2,0,34.8,0
11/4/2004 11:00,22.9,0,59,0,24.3,0,OVER,0,20.4,0,32.8,0
11/4/2004 11:15,22.9,0,58.9,0,24.4,0,OVER,0,20.6,0,33.3,0
11/4/2004 11:30,22.9,0,58.9,0,24.7,0,OVER,0,20.7,0,33.8,0
11/4/2004 11:45,23,0,58.7,0,24.9,0,OVER,0,20.9,0,34.3,0
11/4/2004 12:00,23.1,0,58.5,0,25.1,0,OVER,0,21.1,0,34.8,0
11/4/2004 12:15,23.2,0,58.3,0,25.3,0,OVER,0,21.3,0,34.3,0
11/4/2004 12:30,23.2,0,57.7,0,25.6,0,OVER,0,21.5,0,33.8,0
11/4/2004 12:45,23.3,0,57.5,0,25.8,0,OVER,0,21.7,0,33.3,0
11/4/2004 13:00,23.4,0,57.2,0,26,0,OVER,0,21.9,0,32.8,0
11/4/2004 13:15,23.5,0,57.1,0,26.3,0,OVER,0,21.9,0,32,0
11/4/2004 13:30,23.7,0,56.7,0,26.6,0,OVER,0,21.8,0,31.3,0
11/4/2004 13:45,23.8,0,56.6,0,26.7,0,OVER,0,21.8,0,30.5,0
11/4/2004 14:00,24,0,56,0,26.9,0,OVER,0,21.8,0,29.8,0
11/4/2004 14:15,24.1,0,55.6,0,27.1,0,OVER,0,21.7,0,30,0
11/4/2004 14:30,24.3,0,55.4,0,27.3,0,OVER,0,21.7,0,30.3,0
11/4/2004 14:45,24.4,0,55.7,0,27.5,0,OVER,0,21.6,0,30.5,0
11/4/2004 15:00,24.6,0,54.8,0,27.7,0,OVER,0,21.6,0,30.8,0
11/4/2004 15:15,24.7,0,55.1,0,27.8,0,OVER,0,21.5,0,32.8,0
11/4/2004 15:30,24.7,0,54.6,0,27.9,0,OVER,0,21.3,0,34.8,0
11/4/2004 15:45,24.8,0,54.6,0,28,0,OVER,0,21.2,0,36.8,0
11/4/2004 16:00,24.9,0,54.4,0,28,0,OVER,0,21.1,0,38.8,0
11/4/2004 16:15,24.9,0,54.3,0,28,0,OVER,0,20.8,0,40,0
11/4/2004 16:30,24.9,0,54.1,0,27.9,0,OVER,0,20.5,0,41.3,0
11/4/2004 16:45,24.8,0,54,0,27.7,0,OVER,0,20.3,0,42.5,0
11/4/2004 17:00,24.7,0,54.2,0,27.6,0,OVER,0,20,0,43.8,0
11/4/2004 17:15,24.7,0,54.4,0,27.4,0,OVER,0,20,0,43,0
11/4/2004 17:30,24.6,0,54.4,0,27.2,0,OVER,0,20,0,42.3,0
11/4/2004 17:45,24.5,0,54.4,0,27.1,0,OVER,0,20,0,41.5,0
11/4/2004 18:00,24.4,0,54.3,0,26.9,0,OVER,0,20,0,40.8,0
11/4/2004 18:15,24.2,0,54.4,0,26.8,0,OVER,0,19.7,0,42,0
11/4/2004 18:30,24.1,0,53.7,0,26.7,0,OVER,0,19.5,0,43.3,0
11/4/2004 18:45,24.1,0,54.5,0,26.6,0,OVER,0,19.2,0,44.5,0
11/4/2004 19:00,24.1,0,54.5,0,26.4,0,OVER,0,19,0,45.8,0
11/4/2004 19:15,24.1,0,55.1,0,26.3,0,OVER,0,18.7,0,45.8,0
11/4/2004 19:30,24,0,54.4,0,26.2,0,OVER,0,18.4,0,45.8,0
11/4/2004 19:45,24,0,54.6,0,26,0,OVER,0,18.2,0,45.8,0
11/4/2004 20:00,24,0,55.4,0,25.9,0,OVER,0,17.9,0,45.8,0
11/4/2004 20:15,24,0,55.8,0,25.8,0,OVER,0,17.7,0,45.8,0
11/4/2004 20:30,24,0,60.8,0,25.6,0,OVER,0,17.6,0,45.8,0
11/4/2004 20:45,24.1,0,63.8,0,25.5,0,OVER,0,17.4,0,45.8,0
11/4/2004 21:00,24.1,0,63,0,25.4,0,OVER,0,17.3,0,45.8,0
11/4/2004 21:15,24.1,0,62.1,0,25.2,0,OVER,0,17.1,0,47.5,0
11/4/2004 21:30,24.1,0,61.7,0,25.1,0,OVER,0,16.9,0,49.3,0
11/4/2004 21:45,24,0,60.4,0,25,0,OVER,0,16.8,0,51,0
11/4/2004 22:00,23.9,0,58.8,0,25,0,OVER,0,16.6,0,52.8,0
11/4/2004 22:15,23.8,0,57.9,0,24.9,0,OVER,0,16.5,0,54.5,0
11/4/2004 22:30,23.7,0,57,0,24.8,0,OVER,0,16.4,0,56.3,0
11/4/2004 22:45,23.6,0,56.6,0,24.7,0,OVER,0,16.3,0,58,0
11/4/2004 23:00,23.5,0,56.2,0,24.6,0,OVER,0,16.2,0,59.8,0
11/4/2004 23:15,23.4,0,56,0,24.5,0,OVER,0,16.2,0,59.8,0
11/4/2004 23:30,23.3,0,56.7,0,24.4,0,OVER,0,16.2,0,59.8,0
11/4/2004 23:45,23.2,0,57.8,0,24.3,0,OVER,0,16.3,0,59.8,0
11/5/2004 0:00,23.1,0,57.5,0,24.2,0,OVER,0,16.3,0,59.8,0
11/5/2004 0:15,23.1,0,58.4,0,24.1,0,OVER,0,16.2,0,61.8,0
11/5/2004 0:30,23.1,0,58.9,0,24,0,OVER,0,16,0,63.8,0
11/5/2004 0:45,23.1,0,62.7,0,24,0,OVER,0,15.9,0,65.8,0
11/5/2004 1:00,23.1,0,64.3,0,23.9,0,OVER,0,15.8,0,67.8,0
11/5/2004 1:15,23.2,0,65.3,0,23.9,0,OVER,0,15.7,0,66.6,0
11/5/2004 1:30,23.2,0,64.3,0,23.8,0,OVER,0,15.6,0,65.3,0
11/5/2004 1:45,23.2,0,63.1,0,23.7,0,OVER,0,15.6,0,64.1,0
11/5/2004 2:00,23.3,0,62.3,0,23.7,0,OVER,0,15.5,0,62.8,0
11/5/2004 2:15,23.4,0,61.9,0,23.7,0,OVER,0,15.5,0,62,0
11/5/2004 2:30,23.4,0,61.2,0,23.6,0,OVER,0,15.4,0,61.3,0
11/5/2004 2:45,23.4,0,60.5,0,23.6,0,OVER,0,15.4,0,60.5,0
11/5/2004 3:00,23.3,0,59.5,0,23.5,0,OVER,0,15.4,0,59.8,0
11/5/2004 3:15,23.2,0,59.2,0,23.4,0,OVER,0,15.4,0,58,0
11/5/2004 3:30,23.1,0,58.6,0,23.3,0,OVER,0,15.4,0,56.3,0
11/5/2004 3:45,23,0,58.5,0,23.2,0,OVER,0,15.4,0,54.5,0
11/5/2004 4:00,22.8,0,58.1,0,23.2,0,OVER,0,15.4,0,52.8,0
11/5/2004 4:15,22.7,0,57.9,0,23.1,0,OVER,0,15.1,0,53.8,0
11/5/2004 4:30,22.5,0,57.9,0,23,0,OVER,0,14.9,0,54.8,0
11/5/2004 4:45,22.4,0,57.6,0,22.9,0,OVER,0,14.6,0,55.8,0
11/5/2004 5:00,22.2,0,57.6,0,22.8,0,OVER,0,14.4,0,56.8,0
11/5/2004 5:15,22.1,0,57.3,0,22.8,0,OVER,0,14.4,0,57.3,0
11/5/2004 5:30,21.9,0,57.3,0,22.6,0,OVER,0,14.3,0,57.8,0
11/5/2004 5:45,21.8,0,57.3,0,22.5,0,OVER,0,14.3,0,58.3,0
11/5/2004 6:00,21.6,0,57.2,0,22.4,0,OVER,0,14.3,0,58.8,0
11/5/2004 6:15,21.5,0,57.4,0,22.4,0,OVER,0,14.1,0,59.3,0
11/5/2004 6:30,21.7,0,64.7,0,22.3,0,OVER,0,13.9,0,59.8,0
11/5/2004 6:45,21.9,0,63.2,0,22.3,0,OVER,0,13.8,0,60.3,0
11/5/2004 7:00,22,0,64.5,0,22.3,0,OVER,0,13.6,0,60.8,0